[[{"header":{"parameterUnit":"m.s-1","parameterCategory":1,"la1":30.2991,"la2":30.254,"lo1":-89.0895,"lo2":-89.0444,"dy":0.0017,"dx":0.0017,"nx":28,"ny":28,"refTime":"2024-09-25T21:00:00:Z","depth":0,"parameterNumber":2,"parameterNumberName":"U-component_of_WINDS"},"data":[0,0,0,0,0,0,0,0,0,0,0,0,0,0,0,0,0,0,0,0,0,0,0,0,0,0,0,0,0,0,0,0,0,0,0,0,0,0,0,0,0,0,0,0,0,0,0,0,0,0,0,0,0,0,0,0,0,0,-1.5864,-1.5865,0,-1.6015,-1.6017,-1.6019,-1.5991,-1.5988,-1.5985,-1.5982,-1.6145,-1.6152,-1.6159,0,0,0,0,0,0,0,0,0,0,0,0,0,-1.5555,-1.556,-1.5863,-1.5865,-1.5867,-1.6015,-1.6017,-1.6019,-1.5991,-1.5988,-1.5984,-1.5981,-1.6143,-1.6151,-1.6159,0,0,0,0,0,0,0,0,0,0,0,0,0,-1.5696,-1.5562,-1.5863,-1.5871,-1.5873,-1.6015,-1.6017,-1.602,-1.5992,-1.5988,-1.5983,-1.598,-1.614,-1.615,-1.616,-1.6307,0,0,-1.6192,-1.6197,0,0,0,0,0,0,0,0,-1.5688,-1.5708,-1.5868,-1.587,-1.5873,-1.598,-1.5968,-1.6116,-1.5993,-1.5947,-1.5982,-1.5978,-1.6094,-1.6108,-1.6146,-1.6314,-1.6321,-1.6193,-1.6199,-1.6204,-1.6207,0,0,0,0,0,0,0,-1.5678,-1.5701,-1.5924,-1.587,-1.5873,-1.5869,-1.5884,-1.5996,-1.6042,-1.5951,-1.5949,-1.5967,-1.6095,-1.6136,-1.6149,-1.6324,-1.6193,-1.6202,-1.6208,-1.6212,-1.6622,-1.6626,0,0,0,0,0,0,-1.5665,-1.5693,-1.5919,-1.5928,-1.5768,-1.5877,-1.5895,-1.595,-1.604,-1.605,-1.597,-1.5965,-1.612,-1.6137,-1.6155,-1.6334,-1.6204,-1.6213,-1.6219,-1.6617,-1.6623,-1.6628,0,0,0,0,0,0,-1.5659,-1.5686,-1.5913,-1.581,-1.5839,-1.5887,-1.5949,-1.5955,-1.5996,-1.6055,-1.6064,-1.6003,-1.6117,-1.614,-1.6269,-1.6339,-1.6218,-1.6227,-1.6611,-1.6619,-1.6625,-1.6692,0,0,0,0,0,0,-1.565,-1.5683,-1.5738,-1.5811,-1.5844,-1.6023,-1.5953,-1.5961,-1.6013,-1.6008,-1.6089,-1.6098,-1.6116,-1.6254,-1.6279,-1.6351,-1.6235,-1.6606,-1.6615,-1.6623,-1.6684,-1.6701,-1.6715,0,0,0,0,0,-1.5639,-1.5752,-1.5741,-1.5768,-1.5913,-1.6027,-1.6046,-1.6062,-1.6019,-1.6075,-1.6113,-1.6096,-1.6326,-1.6267,-1.6296,-1.6372,-1.6601,-1.6612,-1.6622,-1.6677,-1.6698,-1.6715,0,0,0,0,0,0,-1.5689,-1.5762,-1.5751,-1.589,-1.5952,-1.6022,-1.6094,-1.6083,-1.616,-1.6153,-1.6171,-1.619,-1.6321,-1.6359,-1.6291,-1.6519,-1.6458,-1.6475,-1.649,-1.651,-1.6525,-1.6515,-1.6244,0,0,0,0,0,-1.5715,-1.5799,-1.5859,-1.5977,-1.6008,-1.6046,-1.6096,-1.6102,-1.6169,-1.6196,-1.6243,-1.631,-1.6397,-1.6455,-1.6539,-1.6688,-1.6707,-1.6754,-1.677,-1.6782,-1.6798,-1.6882,-1.6905,-1.6662,-1.6662,-1.6662,0,0,-1.5772,-1.5823,-1.5875,-1.5988,-1.6037,-1.6126,-1.6068,-1.6165,-1.6232,-1.6211,-1.6336,-1.6372,-1.6448,-1.6588,-1.6652,-1.6624,-1.6868,-1.6796,-1.6805,-1.6814,-1.6896,-1.6918,-1.6939,-1.6669,-1.6668,-1.6667,0,0,-1.5923,-1.5967,-1.6072,-1.6121,-1.6195,-1.6219,-1.6243,-1.6314,-1.6338,-1.6462,-1.6449,-1.6529,-1.6679,-1.6734,-1.6782,-1.6951,-1.694,-1.6978,-1.7061,-1.7143,-1.7162,-1.7179,-1.7243,-1.7265,-1.6992,-1.6993,-1.6993,0,-1.5986,-1.6117,-1.6127,-1.6225,-1.6277,-1.6258,-1.6365,-1.6413,-1.6512,-1.6549,-1.6514,-1.6702,-1.6751,-1.6906,-1.6947,-1.6985,-1.7016,-1.6971,-1.7158,-1.7175,-1.7191,-1.7253,-1.7276,-1.6997,-1.6997,-1.6996,-1.6996,0,-1.6192,-1.6284,-1.6359,-1.6452,-1.6511,-1.6614,-1.6641,-1.67,-1.6701,-1.6729,-1.6857,-1.6915,-1.7011,-1.7047,-1.705,-1.7203,-1.7183,-1.7152,-1.7093,-1.7219,-1.7277,-1.73,-1.7004,-1.7002,-1.7001,-1.7,0,0,-1.6382,-1.6477,-1.6506,-1.6548,-1.6627,-1.67,-1.6801,-1.6892,-1.6944,-1.7012,-1.71,-1.7226,-1.7199,-1.7253,-1.7261,-1.7332,-1.7467,-1.7294,-1.7296,-1.7327,-1.7642,-1.7668,-1.7694,-1.7457,-1.7461,-1.7465,-1.7637,0,-1.6543,-1.672,-1.6732,-1.6894,-1.698,-1.6962,-1.7051,-1.7111,-1.7139,-1.7218,-1.7249,-1.734,-1.7295,-1.7328,-1.7397,-1.7436,-1.7531,-1.7423,-1.7543,-1.7547,-1.7529,-1.7724,-1.7752,-1.7912,-1.766,-1.7663,-1.7666,0,-1.6755,-1.6827,-1.6997,-1.7065,-1.7101,-1.7181,-1.7266,-1.734,-1.7408,-1.7423,-1.7483,-1.7481,-1.7588,-1.752,-1.7669,-1.7595,-1.7644,-1.7671,-1.7677,-1.7693,-1.7618,-1.775,-1.7963,-1.7988,-1.7701,-1.7698,-1.7696,0,-1.6881,-1.7021,-1.7141,-1.7177,-1.7258,-1.7315,-1.7351,-1.7414,-1.7469,-1.7543,-1.758,-1.7666,-1.7715,-1.7783,-1.7805,-1.7753,-1.7955,-1.7888,-1.7974,-1.7974,-1.8022,-1.8019,-1.825,-1.8046,-1.8045,-1.8045,-1.8044,0,-1.7063,-1.7168,-1.7199,-1.7274,-1.7392,-1.7404,-1.7521,-1.7555,-1.7611,-1.7693,-1.7682,-1.7761,-1.7783,-1.7866,-1.7883,-1.8006,-1.8027,-1.8045,-1.805,-1.8049,-1.8048,-1.8085,-1.8077,-1.8051,-1.805,-1.8049,-1.8048,0,-1.7226,-1.725,-1.7381,-1.7445,-1.7463,-1.7548,-1.7605,-1.7678,-1.7702,-1.7807,-1.7833,-1.7874,-1.797,-1.7998,-1.8114,-1.8126,-1.8272,-1.8264,-1.8249,-1.8251,-1.8336,-1.833,-1.8604,-1.8642,-1.8408,-1.841,-1.8412,0,-1.7342,-1.7423,-1.7495,-1.7549,-1.7587,-1.7673,-1.7728,-1.7742,-1.7801,-1.7883,-1.7947,-1.8041,-1.8118,-1.8274,-1.8316,-1.8405,-1.8402,-1.8491,-1.8416,-1.8413,-1.8409,-1.8405,-1.8415,-1.8508,-1.851,-1.8512,-1.8514,0,-1.7548,-1.7555,-1.7633,-1.7717,-1.7782,-1.7848,-1.7912,-1.7957,-1.7981,-1.8047,-1.8144,-1.8204,-1.8321,-1.8417,-1.8507,-1.8547,-1.8537,-1.8536,-1.8562,-1.8565,-1.8554,-1.8565,-1.8293,-1.8531,-1.853,-1.8528,-1.8527,-1.8527,-1.7694,-1.7766,-1.7828,-1.7916,-1.7965,-1.8024,-1.8096,-1.8129,-1.821,-1.8306,-1.8309,-1.8416,-1.8482,-1.8602,-1.8646,-1.8732,-1.8706,-1.8742,-1.8752,-1.8762,-1.8771,-1.8536,-1.8748,-1.8747,-1.8747,-1.8747,-1.8746,0,-1.7903,-1.7941,-1.8021,-1.811,-1.818,-1.8158,-1.8228,-1.8289,-1.8382,-1.8443,-1.8518,-1.8631,-1.8723,-1.8771,-1.8863,-1.8923,-1.892,-1.8947,-1.8945,-1.8956,-1.8787,-1.8758,-1.8948,-1.8948,-1.8947,-1.8947,-1.8947,-1.8947,-1.802,-1.814,-1.8155,-1.83,-1.8338,-1.8441,-1.8483,-1.8539,-1.8588,-1.8714,-1.879,-1.8819,-1.8875,-1.8971,-1.9056,-1.9067,-1.9104,-1.9135,-1.9144,-1.8987,-1.8967,-1.8948,-1.892,-1.9141,-1.9142,-1.9306,-1.9308,-1.9309]},{"header":{"parameterUnit":"m.s-1","parameterCategory":1,"la1":30.2991,"la2":30.254,"lo1":-89.0895,"lo2":-89.0444,"dy":0.0017,"dx":0.0017,"nx":28,"ny":28,"refTime":"2024-09-25T21:00:00:Z","depth":0,"parameterNumber":3,"parameterNumberName":"V-component_of_WINDS"},"data":[0,0,0,0,0,0,0,0,0,0,0,0,0,0,0,0,0,0,0,0,0,0,0,0,0,0,0,0,0,0,0,0,0,0,0,0,0,0,0,0,0,0,0,0,0,0,0,0,0,0,0,0,0,0,0,0,0,0,-6.0876,-6.0877,0,-6.0933,-6.0933,-6.0934,-6.0841,-6.0838,-6.0835,-6.0832,-6.0887,-6.0891,-6.0895,0,0,0,0,0,0,0,0,0,0,0,0,0,-6.0684,-6.0688,-6.0876,-6.0877,-6.0878,-6.0933,-6.0933,-6.0934,-6.0842,-6.0838,-6.0834,-6.0831,-6.0885,-6.0891,-6.0896,0,0,0,0,0,0,0,0,0,0,0,0,0,-6.0757,-6.0689,-6.0876,-6.0838,-6.0836,-6.0932,-6.0933,-6.0934,-6.0843,-6.0838,-6.0833,-6.0829,-6.0884,-6.089,-6.0897,-6.1032,0,0,-6.0917,-6.092,0,0,0,0,0,0,0,0,-6.0753,-6.0764,-6.0843,-6.0841,-6.0838,-6.0875,-6.0886,-6.0967,-6.0844,-6.084,-6.0832,-6.0827,-6.0887,-6.0893,-6.0914,-6.1035,-6.1037,-6.0917,-6.0921,-6.0924,-6.0926,0,0,0,0,0,0,0,-6.0748,-6.0761,-6.0898,-6.0844,-6.0841,-6.0817,-6.0822,-6.0901,-6.0889,-6.084,-6.0833,-6.0842,-6.0884,-6.0907,-6.0914,-6.1038,-6.0917,-6.0923,-6.0927,-6.093,-6.127,-6.1275,0,0,0,0,0,0,-6.0748,-6.0757,-6.0897,-6.09,-6.0783,-6.0824,-6.083,-6.0868,-6.0888,-6.0886,-6.0845,-6.0837,-6.0898,-6.0907,-6.0916,-6.1074,-6.0924,-6.093,-6.0934,-6.1265,-6.1271,-6.1277,0,0,0,0,0,0,-6.0744,-6.0761,-6.0894,-6.0827,-6.0842,-6.0833,-6.0876,-6.0872,-6.0895,-6.0892,-6.0889,-6.0872,-6.0895,-6.0906,-6.1003,-6.1075,-6.0933,-6.0939,-6.1259,-6.1267,-6.1274,-6.1393,0,0,0,0,0,0,-6.0739,-6.0761,-6.0813,-6.0829,-6.0846,-6.0983,-6.0881,-6.0876,-6.0907,-6.0896,-6.0916,-6.0915,-6.0892,-6.0994,-6.101,-6.1081,-6.0944,-6.1253,-6.1263,-6.1272,-6.1383,-6.1404,-6.1422,0,0,0,0,0,-6.0733,-6.0844,-6.0816,-6.0834,-6.0912,-6.0987,-6.0997,-6.097,-6.0913,-6.0965,-6.0963,-6.0914,-6.1065,-6.1005,-6.1022,-6.1096,-6.1248,-6.126,-6.1271,-6.1374,-6.14,-6.1422,0,0,0,0,0,0,-6.0836,-6.0846,-6.0815,-6.0935,-6.0961,-6.0972,-6.1036,-6.0998,-6.104,-6.1029,-6.0992,-6.0997,-6.1102,-6.1108,-6.1042,-6.1227,-6.1147,-6.1162,-6.1219,-6.1244,-6.1263,-6.1259,-6.095,0,0,0,0,0,-6.0873,-6.0935,-6.0939,-6.1045,-6.106,-6.1046,-6.1078,-6.1055,-6.108,-6.109,-6.1095,-6.1121,-6.1173,-6.1209,-6.1257,-6.1383,-6.1385,-6.1443,-6.1462,-6.1479,-6.1492,-6.1558,-6.1583,-6.1314,-6.1314,-6.1314,0,0,-6.095,-6.0963,-6.1004,-6.1066,-6.1084,-6.1147,-6.1056,-6.1127,-6.1173,-6.11,-6.1193,-6.1197,-6.1223,-6.1335,-6.1384,-6.1344,-6.1567,-6.1493,-6.1506,-6.1511,-6.1572,-6.1597,-6.162,-6.1322,-6.1321,-6.132,0,0,-6.1122,-6.1139,-6.1228,-6.1247,-6.1275,-6.1265,-6.1286,-6.1303,-6.1303,-6.1395,-6.1341,-6.1395,-6.1487,-6.1507,-6.1529,-6.1707,-6.1663,-6.1724,-6.1826,-6.1891,-6.1912,-6.193,-6.1993,-6.2016,-6.1738,-6.1738,-6.1738,0,-6.1214,-6.1308,-6.1278,-6.1353,-6.1381,-6.1319,-6.1408,-6.1428,-6.147,-6.149,-6.1444,-6.1557,-6.157,-6.1685,-6.1729,-6.1749,-6.1771,-6.1722,-6.1911,-6.193,-6.1947,-6.2006,-6.2029,-6.1745,-6.1744,-6.1744,-6.1743,0,-6.1419,-6.1485,-6.1554,-6.1596,-6.1632,-6.1714,-6.1694,-6.1734,-6.1707,-6.1701,-6.1795,-6.1808,-6.1857,-6.1883,-6.1858,-6.1994,-6.1968,-6.1918,-6.1835,-6.198,-6.2034,-6.2057,-6.1755,-6.1753,-6.1751,-6.1749,0,0,-6.1659,-6.1683,-6.1709,-6.1726,-6.1752,-6.1802,-6.188,-6.1929,-6.1963,-6.1993,-6.2056,-6.2135,-6.2088,-6.2114,-6.209,-6.2146,-6.2285,-6.2089,-6.2089,-6.2124,-6.2434,-6.2472,-6.2498,-6.2256,-6.226,-6.2264,-6.2432,0,-6.1829,-6.1965,-6.1939,-6.2071,-6.213,-6.2071,-6.2139,-6.2161,-6.2157,-6.2206,-6.2201,-6.2257,-6.2192,-6.2207,-6.226,-6.2257,-6.2347,-6.2245,-6.2313,-6.2316,-6.2308,-6.2527,-6.2567,-6.2725,-6.2453,-6.2457,-6.2459,0,-6.2047,-6.2086,-6.2224,-6.2238,-6.2262,-6.2324,-6.2366,-6.2414,-6.2437,-6.243,-6.2458,-6.2423,-6.2498,-6.2416,-6.2518,-6.2449,-6.2475,-6.2478,-6.2483,-6.2488,-6.2396,-6.2537,-6.2775,-6.2799,-6.2493,-6.249,-6.2488,0,-6.2206,-6.2294,-6.2387,-6.2404,-6.2424,-6.2468,-6.2478,-6.2496,-6.2527,-6.2563,-6.2582,-6.2627,-6.2651,-6.2685,-6.2662,-6.2605,-6.2768,-6.2684,-6.2763,-6.2764,-6.28,-6.2798,-6.3045,-6.2819,-6.2818,-6.2818,-6.2818,0,-6.2399,-6.2486,-6.2459,-6.2516,-6.261,-6.2579,-6.2673,-6.2675,-6.2692,-6.2748,-6.2699,-6.2752,-6.2719,-6.2769,-6.2751,-6.2838,-6.2849,-6.2844,-6.2839,-6.2849,-6.2849,-6.2865,-6.2853,-6.2824,-6.2823,-6.2822,-6.2821,0,-6.2594,-6.258,-6.2677,-6.2688,-6.2692,-6.2761,-6.2769,-6.2821,-6.2814,-6.2885,-6.2899,-6.2887,-6.2943,-6.2923,-6.2983,-6.2971,-6.3081,-6.3062,-6.3074,-6.3069,-6.3149,-6.3141,-6.3414,-6.3448,-6.3201,-6.3203,-6.3205,0,-6.2718,-6.2783,-6.28,-6.2834,-6.2848,-6.2904,-6.2935,-6.2906,-6.2939,-6.297,-6.3018,-6.307,-6.311,-6.3201,-6.3197,-6.3242,-6.3222,-6.3315,-6.3229,-6.3236,-6.3222,-6.3219,-6.3224,-6.3332,-6.3335,-6.3337,-6.3339,0,-6.2939,-6.2928,-6.2975,-6.302,-6.3058,-6.3092,-6.3121,-6.3151,-6.3123,-6.3163,-6.322,-6.3251,-6.3312,-6.3363,-6.3404,-6.3412,-6.3371,-6.3366,-6.3387,-6.3397,-6.3401,-6.3399,-6.312,-6.336,-6.3358,-6.3356,-6.3355,-6.3354,-6.3101,-6.3156,-6.3176,-6.3229,-6.3248,-6.3276,-6.3325,-6.3324,-6.3371,-6.3419,-6.3398,-6.3464,-6.3483,-6.3532,-6.3546,-6.3596,-6.356,-6.359,-6.3597,-6.3605,-6.3615,-6.3394,-6.3603,-6.3603,-6.3602,-6.3601,-6.3601,0,-6.3319,-6.3329,-6.3378,-6.342,-6.3462,-6.342,-6.3449,-6.3487,-6.3545,-6.3567,-6.3607,-6.3671,-6.372,-6.372,-6.3765,-6.3805,-6.3787,-6.3817,-6.3814,-6.3816,-6.3645,-6.3623,-6.3831,-6.3831,-6.3831,-6.3831,-6.3831,-6.3831,-6.3437,-6.3526,-6.3518,-6.3615,-6.3624,-6.3688,-6.3708,-6.3733,-6.375,-6.3824,-6.3865,-6.3865,-6.3877,-6.3922,-6.3965,-6.3963,-6.3982,-6.4019,-6.4011,-6.3851,-6.3828,-6.3806,-6.3785,-6.4024,-6.4024,-6.4177,-6.4178,-6.4179]}]]